[[{"header":{"parameterUnit":"m.s-1","parameterCategory":1,"la1":30.2991,"la2":30.254,"lo1":-89.0895,"lo2":-89.0444,"dy":0.0017,"dx":0.0017,"nx":28,"ny":28,"refTime":"2023-10-10T09:00:00:Z","depth":0,"parameterNumber":2,"parameterNumberName":"U-component_of_WINDS"},"data":[0,0,0,0,0,0,0,0,0,0,0,0,0,0,0,0,0,0,0,0,0,0,0,0,0,0,0,0,0,0,0,0,0,0,0,0,0,0,0,0,0,0,0,0,0,0,0,0,0,0,0,0,0,0,0,0,0,0,1.0495,1.0495,0,1.0486,1.0486,1.0486,1.0417,1.0415,1.0413,1.0411,1.0404,1.0406,1.0407,0,0,0,0,0,0,0,0,0,0,0,0,0,1.0454,1.0455,1.0495,1.0495,1.0495,1.0486,1.0486,1.0486,1.0417,1.0415,1.0413,1.0411,1.0404,1.0406,1.0407,0,0,0,0,0,0,0,0,0,0,0,0,0,1.0461,1.0455,1.0495,1.0459,1.0456,1.0486,1.0486,1.0486,1.0417,1.0415,1.0412,1.041,1.0403,1.0406,1.0408,1.0473,0,0,1.0414,1.0415,0,0,0,0,0,0,0,0,1.0461,1.0463,1.0465,1.0462,1.0458,1.045,1.0469,1.0482,1.0418,1.0432,1.0411,1.0408,1.0422,1.0422,1.0426,1.0472,1.0472,1.0414,1.0416,1.0417,1.0417,0,0,0,0,0,0,0,1.046,1.0463,1.0492,1.0465,1.0461,1.0444,1.0442,1.0471,1.0442,1.0431,1.0426,1.0425,1.042,1.0424,1.0426,1.0472,1.0414,1.0416,1.0417,1.0418,1.0569,1.0572,0,0,0,0,0,0,1.0464,1.0463,1.0492,1.0492,1.0453,1.0447,1.0445,1.0455,1.0441,1.0436,1.0428,1.0422,1.0422,1.0423,1.0425,1.0499,1.0417,1.0419,1.042,1.0567,1.057,1.0573,0,0,0,0,0,0,1.0464,1.0468,1.0492,1.0476,1.0478,1.045,1.0463,1.0456,1.0461,1.0439,1.0433,1.0438,1.042,1.0422,1.0461,1.0498,1.0419,1.0421,1.0563,1.0568,1.0571,1.0649,0,0,0,0,0,0,1.0463,1.0468,1.0492,1.0477,1.0479,1.0528,1.0465,1.0458,1.0465,1.0458,1.0447,1.0443,1.0418,1.0458,1.0463,1.05,1.0423,1.056,1.0565,1.057,1.0643,1.0655,1.0666,0,0,0,0,0,1.0462,1.0515,1.0494,1.0498,1.0508,1.053,1.0532,1.0502,1.0468,1.0492,1.0478,1.0443,1.0493,1.0463,1.0468,1.0505,1.0557,1.0564,1.057,1.0638,1.0653,1.0665,0,0,0,0,0,0,1.0536,1.0512,1.0488,1.0538,1.0537,1.0519,1.0548,1.0519,1.0527,1.052,1.0483,1.0482,1.0526,1.052,1.0486,1.0567,1.0519,1.0527,1.0569,1.0583,1.0595,1.0595,1.0425,0,0,0,0,0,1.0559,1.0578,1.0556,1.0602,1.0603,1.0576,1.0584,1.0561,1.0559,1.0558,1.0546,1.0545,1.0561,1.0572,1.0585,1.0642,1.0638,1.067,1.0682,1.0691,1.0698,1.0726,1.074,1.0593,1.0593,1.0593,0,0,1.0605,1.0594,1.0609,1.0617,1.0613,1.0634,1.0576,1.0601,1.0616,1.0562,1.0597,1.0589,1.0585,1.0633,1.0654,1.0629,1.0738,1.0699,1.0707,1.0708,1.0734,1.0748,1.0761,1.0597,1.0597,1.0596,0,0,1.0699,1.0694,1.0731,1.0728,1.0722,1.0704,1.0713,1.0699,1.0691,1.0726,1.0685,1.0703,1.0731,1.073,1.0733,1.0827,1.0795,1.0832,1.0891,1.092,1.0931,1.0941,1.0974,1.0986,1.0839,1.0839,1.0839,0,1.0758,1.0787,1.0754,1.0781,1.0786,1.0736,1.0774,1.0773,1.0773,1.0777,1.075,1.0782,1.0777,1.0823,1.0846,1.0851,1.086,1.0833,1.0932,1.0942,1.0951,1.0982,1.0994,1.0844,1.0843,1.0843,1.0842,0,1.0859,1.088,1.0911,1.091,1.0919,1.0951,1.0922,1.0935,1.0911,1.0896,1.0932,1.0923,1.0933,1.0943,1.092,1.0986,1.0971,1.0939,1.089,1.097,1.0998,1.101,1.085,1.0848,1.0847,1.0846,0,0,1.1001,1.098,1.0992,1.0991,1.0981,1.0997,1.1027,1.1036,1.1047,1.1049,1.1073,1.1097,1.1067,1.107,1.1047,1.1073,1.1146,1.1037,1.1036,1.1057,1.1217,1.1241,1.1255,1.1125,1.1127,1.1129,1.1217,0,1.1091,1.114,1.111,1.1164,1.1183,1.1136,1.1163,1.116,1.1146,1.1161,1.1146,1.1163,1.1122,1.1124,1.1147,1.1132,1.1178,1.1126,1.1147,1.1149,1.1149,1.127,1.1295,1.1378,1.1228,1.123,1.1231,0,1.1203,1.1207,1.1263,1.1248,1.1255,1.1279,1.1284,1.1299,1.1295,1.1283,1.1287,1.1257,1.1286,1.1239,1.1278,1.1243,1.125,1.1244,1.1247,1.1247,1.1194,1.1273,1.1404,1.1417,1.1248,1.1247,1.1246,0,1.1299,1.132,1.1355,1.1356,1.134,1.1358,1.1352,1.1345,1.1352,1.1357,1.1361,1.137,1.1375,1.1383,1.1356,1.1324,1.1399,1.1349,1.139,1.139,1.1407,1.1406,1.1541,1.1413,1.1413,1.1413,1.1413,0,1.1402,1.1438,1.1398,1.142,1.1458,1.1424,1.1463,1.1453,1.1447,1.1466,1.1427,1.1446,1.1411,1.1426,1.1406,1.1441,1.1444,1.1435,1.1429,1.1438,1.1439,1.1442,1.1435,1.1416,1.1416,1.1415,1.1414,0,1.1516,1.1491,1.1527,1.1508,1.1505,1.1534,1.1518,1.1538,1.1521,1.1546,1.155,1.1525,1.1541,1.1516,1.153,1.1516,1.1564,1.155,1.1565,1.1561,1.1602,1.1598,1.1742,1.1759,1.1622,1.1624,1.1625,0,1.1584,1.161,1.1594,1.1603,1.1599,1.1616,1.1622,1.1589,1.1598,1.1594,1.1615,1.1627,1.1636,1.1664,1.1647,1.1657,1.1642,1.1692,1.1644,1.1651,1.1642,1.164,1.1642,1.1702,1.1704,1.1705,1.1706,0,1.1705,1.1691,1.1701,1.1707,1.1716,1.1719,1.172,1.173,1.1696,1.1708,1.1723,1.1729,1.1743,1.1756,1.1762,1.1756,1.1726,1.1722,1.1731,1.174,1.1747,1.1743,1.1591,1.1718,1.1717,1.1716,1.1715,1.1715,1.1797,1.1817,1.1809,1.1822,1.1818,1.182,1.1837,1.1822,1.1834,1.1841,1.1822,1.1842,1.1837,1.1841,1.1839,1.1855,1.1833,1.1847,1.1851,1.1854,1.186,1.1746,1.1856,1.1855,1.1855,1.1855,1.1854,0,1.1915,1.1907,1.1919,1.1921,1.1931,1.19,1.1899,1.191,1.1927,1.1925,1.1933,1.1951,1.1963,1.1947,1.1957,1.1972,1.1958,1.1976,1.1974,1.1973,1.188,1.187,1.1987,1.1987,1.1987,1.1987,1.1987,1.1986,1.1978,1.201,1.1995,1.2026,1.2018,1.2036,1.2038,1.2039,1.2037,1.2058,1.2067,1.2056,1.2048,1.2057,1.2067,1.2062,1.2067,1.2089,1.2079,1.1992,1.1979,1.1967,1.1957,1.2091,1.2091,1.217,1.2171,1.2171]},{"header":{"parameterUnit":"m.s-1","parameterCategory":1,"la1":30.2991,"la2":30.254,"lo1":-89.0895,"lo2":-89.0444,"dy":0.0017,"dx":0.0017,"nx":28,"ny":28,"refTime":"2023-10-10T09:00:00:Z","depth":0,"parameterNumber":3,"parameterNumberName":"V-component_of_WINDS"},"data":[0,0,0,0,0,0,0,0,0,0,0,0,0,0,0,0,0,0,0,0,0,0,0,0,0,0,0,0,0,0,0,0,0,0,0,0,0,0,0,0,0,0,0,0,0,0,0,0,0,0,0,0,0,0,0,0,0,0,0.9114,0.9114,0,0.9158,0.9159,0.9159,0.9102,0.91,0.9098,0.9096,0.9142,0.9145,0.9148,0,0,0,0,0,0,0,0,0,0,0,0,0,0.898,0.8982,0.9114,0.9114,0.9115,0.9158,0.9159,0.9159,0.9102,0.91,0.9097,0.9095,0.9141,0.9145,0.9148,0,0,0,0,0,0,0,0,0,0,0,0,0,0.9032,0.8983,0.9114,0.9092,0.909,0.9158,0.9159,0.916,0.9103,0.91,0.9097,0.9094,0.914,0.9144,0.9149,0.9241,0,0,0.9163,0.9166,0,0,0,0,0,0,0,0,0.903,0.9037,0.9094,0.9093,0.9092,0.9121,0.9128,0.9187,0.9104,0.9098,0.9096,0.9092,0.9138,0.9142,0.9158,0.9243,0.9245,0.9164,0.9167,0.9169,0.917,0,0,0,0,0,0,0,0.9026,0.9035,0.9131,0.9095,0.9094,0.908,0.9084,0.9139,0.9135,0.9098,0.9094,0.91,0.9136,0.9153,0.9158,0.9246,0.9164,0.9168,0.9171,0.9173,0.941,0.9413,0,0,0,0,0,0,0.9025,0.9033,0.913,0.9133,0.9052,0.9085,0.9089,0.9115,0.9134,0.9134,0.9103,0.9097,0.9147,0.9153,0.916,0.9269,0.9169,0.9173,0.9176,0.9406,0.941,0.9414,0,0,0,0,0,0,0.9022,0.9034,0.9128,0.9082,0.9092,0.909,0.912,0.9118,0.9134,0.9138,0.9137,0.9121,0.9144,0.9153,0.9221,0.927,0.9175,0.918,0.9402,0.9408,0.9412,0.9489,0,0,0,0,0,0,0.9019,0.9033,0.9068,0.9083,0.9095,0.9189,0.9123,0.9121,0.9143,0.9136,0.9154,0.9154,0.9143,0.9215,0.9226,0.9275,0.9183,0.9398,0.9405,0.9411,0.9482,0.9496,0.9508,0,0,0,0,0,0.9014,0.9088,0.907,0.9082,0.9139,0.9192,0.9199,0.9184,0.9147,0.9182,0.9184,0.9154,0.9263,0.9222,0.9235,0.9286,0.9395,0.9403,0.941,0.9476,0.9494,0.9508,0,0,0,0,0,0,0.9079,0.9089,0.907,0.9151,0.9171,0.9182,0.9226,0.9203,0.9234,0.9226,0.9206,0.9211,0.9284,0.9291,0.9246,0.9376,0.9323,0.9333,0.9369,0.9385,0.9398,0.9395,0.9187,0,0,0,0,0,0.9103,0.9146,0.9152,0.9223,0.9234,0.9229,0.9251,0.9238,0.9258,0.9266,0.9273,0.9294,0.9333,0.9359,0.9395,0.9483,0.9486,0.9524,0.9537,0.9548,0.9557,0.9605,0.9622,0.944,0.944,0.9439,0,0,0.9153,0.9164,0.9192,0.9236,0.925,0.9295,0.9236,0.9286,0.9319,0.9274,0.9339,0.9345,0.9367,0.9446,0.948,0.9454,0.9608,0.9558,0.9566,0.957,0.9615,0.9632,0.9647,0.9445,0.9444,0.9443,0,0,0.9266,0.9278,0.9339,0.9354,0.9377,0.9372,0.9387,0.9402,0.9405,0.947,0.9437,0.9476,0.9543,0.9561,0.9578,0.9699,0.9672,0.9711,0.9779,0.9826,0.984,0.9853,0.9897,0.9913,0.972,0.9721,0.9721,0,0.9325,0.9391,0.9373,0.9426,0.9447,0.9408,0.9469,0.9485,0.9518,0.9534,0.9503,0.9587,0.9599,0.9682,0.9711,0.9726,0.9743,0.9709,0.984,0.9852,0.9864,0.9905,0.9922,0.9725,0.9725,0.9724,0.9724,0,0.9463,0.9509,0.9556,0.9589,0.9615,0.9672,0.9662,0.9691,0.9675,0.9675,0.9742,0.9755,0.9793,0.9811,0.9797,0.9892,0.9875,0.9843,0.9789,0.9886,0.9925,0.9941,0.9732,0.973,0.9729,0.9728,0,0,0.9619,0.9642,0.9659,0.9674,0.9696,0.9731,0.9786,0.9824,0.9849,0.9873,0.9919,0.9977,0.9947,0.9967,0.9954,0.9995,1.0091,0.9957,0.9958,0.9983,1.0198,1.0223,1.0241,1.0073,1.0076,1.0078,1.0196,0,0.9734,0.9829,0.9815,0.9907,0.995,0.9914,0.9962,0.9981,0.9982,1.0018,1.0019,1.0061,1.0018,1.003,1.0068,1.0071,1.0134,1.0062,1.0116,1.0118,1.0113,1.0262,1.0288,1.0399,1.0211,1.0214,1.0216,0,0.988,0.9909,1.0006,1.0022,1.0039,1.0083,1.0116,1.0151,1.0172,1.017,1.0193,1.0172,1.0227,1.0172,1.0249,1.02,1.0221,1.0226,1.023,1.0235,1.0173,1.0271,1.0433,1.045,1.0239,1.0237,1.0235,0,0.9985,1.0049,1.0115,1.0129,1.0149,1.018,1.019,1.0207,1.0231,1.026,1.0275,1.0311,1.033,1.0358,1.0348,1.0309,1.0427,1.037,1.0427,1.0428,1.0454,1.0453,1.0623,1.0467,1.0466,1.0466,1.0466,0,1.0115,1.0176,1.0163,1.0204,1.0271,1.0254,1.0321,1.0326,1.0342,1.0384,1.0354,1.0394,1.0378,1.0416,1.0408,1.0473,1.0482,1.0482,1.048,1.0485,1.0485,1.0499,1.0492,1.0471,1.047,1.0469,1.0468,0,1.0244,1.0238,1.0308,1.0321,1.0326,1.0375,1.0386,1.0424,1.0423,1.0476,1.0487,1.0485,1.0529,1.0521,1.057,1.0565,1.0646,1.0633,1.0639,1.0637,1.0694,1.0689,1.0879,1.0904,1.0731,1.0733,1.0734,0,1.0327,1.0373,1.0391,1.0417,1.0429,1.0471,1.0495,1.048,1.0506,1.0534,1.0569,1.061,1.0643,1.0715,1.0718,1.0755,1.0743,1.0807,1.0749,1.0753,1.0745,1.0743,1.0748,1.0819,1.0821,1.0823,1.0824,0,1.0476,1.0471,1.0507,1.0543,1.0572,1.0599,1.0623,1.0646,1.0633,1.0664,1.0709,1.0734,1.0784,1.0826,1.086,1.087,1.0846,1.0843,1.0858,1.0864,1.0866,1.0867,1.0672,1.0838,1.0837,1.0836,1.0835,1.0835,1.0586,1.0625,1.0644,1.0685,1.0702,1.0725,1.0762,1.0766,1.0803,1.0842,1.0831,1.0882,1.0902,1.0946,1.096,1.0999,1.0976,1.0997,1.1003,1.1009,1.1016,1.0859,1.1006,1.1005,1.1005,1.1004,1.1004,0,1.0734,1.0744,1.0782,1.0817,1.085,1.0824,1.0849,1.0878,1.0923,1.0944,1.0976,1.1028,1.1068,1.1075,1.1113,1.1144,1.1133,1.1154,1.1152,1.1155,1.1035,1.1018,1.1162,1.1162,1.1162,1.1162,1.1162,1.1162,1.0815,1.088,1.0878,1.0951,1.0961,1.1011,1.1028,1.105,1.1066,1.1125,1.1159,1.1162,1.1177,1.1216,1.1252,1.1253,1.1269,1.1294,1.1291,1.1179,1.1163,1.1148,1.1133,1.1298,1.1298,1.1408,1.1409,1.1409]}]]